SKW6501 KDFW-KTYR

Flight info

Callsign SKW6501
Flight time 0h 25m
Altitude 15000
Route GARL6 TYR
Aircraft CRJ7/M-SDFGIRWY/S

Departure

Time 2026-05-04 17:32
Airport Dallas Fort Worth International Airport (KDFW)

Arrival

Time 2026-05-04 17:57
Airport Tyler Pounds Regional Airport (KTYR)
Time Latitude Longitude Altitude Speed Heading
2026-05-04 17:08 32.88744 -97.03536 623 ft 0 kts 98°
2026-05-04 17:20 32.88749 -97.03576 614 ft 3 kts 98°
2026-05-04 17:20 32.88752 -97.03597 618 ft 2 kts 98°
2026-05-04 17:21 32.88752 -97.03599 625 ft 0 kts 98°
2026-05-04 17:24 32.88811 -97.03534 614 ft 11 kts 35°
2026-05-04 17:25 32.88880 -97.03491 623 ft 12 kts 25°
2026-05-04 17:25 32.88973 -97.03370 619 ft 11 kts 69°
2026-05-04 17:26 32.89121 -97.03318 614 ft 13 kts 359°
2026-05-04 17:26 32.89435 -97.03315 619 ft 17 kts
2026-05-04 17:27 32.89682 -97.03316 618 ft 19 kts
2026-05-04 17:27 32.89959 -97.03314 618 ft 21 kts
2026-05-04 17:28 32.90264 -97.03313 614 ft 23 kts
2026-05-04 17:29 32.90769 -97.03310 619 ft 25 kts
2026-05-04 17:29 32.91236 -97.03274 614 ft 22 kts
2026-05-04 17:30 32.91492 -97.03117 614 ft 14 kts 90°
2026-05-04 17:31 32.91425 -97.02992 620 ft 12 kts 180°
2026-05-04 17:31 32.90034 -97.03001 760 ft 119 kts 179°
2026-05-04 17:32 32.88311 -97.02774 1500 ft 127 kts 167°
2026-05-04 17:33 32.85372 -97.01387 3038 ft 172 kts 163°
2026-05-04 17:33 32.84249 -97.00811 3764 ft 181 kts 162°
2026-05-04 17:34 32.80186 -96.98780 5663 ft 233 kts 162°
2026-05-04 17:34 32.78659 -96.98030 6458 ft 240 kts 162°
2026-05-04 17:35 32.74089 -96.95263 8678 ft 270 kts 132°
2026-05-04 17:35 32.73100 -96.90745 10007 ft 296 kts 91°
2026-05-04 17:35 32.73120 -96.88271 10734 ft 303 kts 88°
2026-05-04 17:36 32.73206 -96.85710 11242 ft 316 kts 86°
2026-05-04 17:36 32.73320 -96.83085 11997 ft 320 kts 85°
2026-05-04 17:36 32.73466 -96.80435 12761 ft 324 kts 84°
2026-05-04 17:36 32.73622 -96.77747 13510 ft 328 kts 84°
2026-05-04 17:37 32.73775 -96.75061 14209 ft 332 kts 83°
2026-05-04 17:37 32.73941 -96.72268 14639 ft 348 kts 83°
2026-05-04 17:37 32.74112 -96.69316 14873 ft 368 kts 84°
2026-05-04 17:37 32.74284 -96.66204 14977 ft 388 kts 84°
2026-05-04 17:38 32.74461 -96.62924 15024 ft 408 kts 84°
2026-05-04 17:38 32.74648 -96.59482 15049 ft 426 kts 84°
2026-05-04 17:38 32.74841 -96.55940 15060 ft 431 kts 84°
2026-05-04 17:38 32.75034 -96.52396 15057 ft 429 kts 84°
2026-05-04 17:39 32.75417 -96.45331 15048 ft 427 kts 84°
2026-05-04 17:39 32.75605 -96.41829 15045 ft 423 kts 84°
2026-05-04 17:39 32.75793 -96.38357 15036 ft 419 kts 84°
2026-05-04 17:40 32.75976 -96.34916 15036 ft 415 kts 84°
2026-05-04 17:40 32.75949 -96.31510 15027 ft 411 kts 94°
2026-05-04 17:40 32.75501 -96.28175 15033 ft 407 kts 100°
2026-05-04 17:40 32.74903 -96.24903 15030 ft 403 kts 101°
2026-05-04 17:41 32.74304 -96.21663 15032 ft 400 kts 101°
2026-05-04 17:41 32.73748 -96.18442 15029 ft 397 kts 99°
2026-05-04 17:41 32.73247 -96.15236 15026 ft 394 kts 99°
2026-05-04 17:41 32.72752 -96.12082 15025 ft 392 kts 99°
2026-05-04 17:42 32.72253 -96.08911 15024 ft 390 kts 99°
2026-05-04 17:42 32.71753 -96.05748 15020 ft 390 kts 99°
2026-05-04 17:42 32.71254 -96.02580 15021 ft 390 kts 99°
2026-05-04 17:42 32.70749 -95.99411 15018 ft 391 kts 99°
2026-05-04 17:43 32.70245 -95.96234 15021 ft 391 kts 99°
2026-05-04 17:43 32.69738 -95.93086 15018 ft 385 kts 100°
2026-05-04 17:43 32.69205 -95.89989 15018 ft 379 kts 99°
2026-05-04 17:43 32.68750 -95.86943 15008 ft 370 kts 98°
2026-05-04 17:44 32.68310 -95.83938 14619 ft 375 kts 98°
2026-05-04 17:44 32.67845 -95.80889 13989 ft 372 kts 99°
2026-05-04 17:44 32.67379 -95.77892 13313 ft 366 kts 98°
2026-05-04 17:44 32.66923 -95.74942 12625 ft 360 kts 99°
2026-05-04 17:45 32.66480 -95.72079 11982 ft 353 kts 99°
2026-05-04 17:45 32.66039 -95.69235 11339 ft 347 kts 99°
2026-05-04 17:45 32.65607 -95.66453 10742 ft 339 kts 100°
2026-05-04 17:45 32.65185 -95.63730 10190 ft 331 kts 100°
2026-05-04 17:46 32.64774 -95.61073 9662 ft 324 kts 100°
2026-05-04 17:46 32.64373 -95.58476 9091 ft 317 kts 101°
2026-05-04 17:46 32.63973 -95.55927 8550 ft 311 kts 101°
2026-05-04 17:46 32.63586 -95.53430 7995 ft 305 kts 101°
2026-05-04 17:47 32.63202 -95.50993 7462 ft 300 kts 102°
2026-05-04 17:47 32.62824 -95.48583 6952 ft 295 kts 102°
2026-05-04 17:47 32.62452 -95.46209 6448 ft 290 kts 102°
2026-05-04 17:47 32.62089 -95.43884 5928 ft 284 kts 103°
2026-05-04 17:48 32.61736 -95.41599 5457 ft 278 kts 103°
2026-05-04 17:48 32.61405 -95.39364 4980 ft 273 kts 103°
2026-05-04 17:48 32.61090 -95.37186 4529 ft 268 kts 103°
2026-05-04 17:48 32.60814 -95.35016 4077 ft 264 kts 102°
2026-05-04 17:49 32.60584 -95.32876 3598 ft 259 kts 101°
2026-05-04 17:49 32.60375 -95.30788 3242 ft 249 kts 101°
2026-05-04 17:49 32.60194 -95.28805 3086 ft 234 kts 101°
2026-05-04 17:49 32.59992 -95.26987 3074 ft 215 kts 108°
2026-05-04 17:50 32.59507 -95.25327 3008 ft 216 kts 119°
2026-05-04 17:50 32.58716 -95.23806 2965 ft 216 kts 141°
2026-05-04 17:50 32.57379 -95.23130 2972 ft 214 kts 175°
2026-05-04 17:50 32.55890 -95.23001 2992 ft 211 kts 181°
2026-05-04 17:51 32.54479 -95.23017 2979 ft 194 kts 183°
2026-05-04 17:51 32.53173 -95.23121 2928 ft 183 kts 187°
2026-05-04 17:51 32.51987 -95.23311 2881 ft 168 kts 189°
2026-05-04 17:51 32.50848 -95.23544 2817 ft 160 kts 194°
2026-05-04 17:52 32.49803 -95.23908 2842 ft 158 kts 201°
2026-05-04 17:52 32.48858 -95.24593 2830 ft 160 kts 217°
2026-05-04 17:52 32.47996 -95.25412 2841 ft 158 kts 217°
2026-05-04 17:52 32.47161 -95.26293 2856 ft 163 kts 221°
2026-05-04 17:53 32.46367 -95.27224 2918 ft 154 kts 222°
2026-05-04 17:53 32.45635 -95.28049 2771 ft 141 kts 220°
2026-05-04 17:53 32.44951 -95.28855 2726 ft 138 kts 222°
2026-05-04 17:53 32.44270 -95.29669 2517 ft 141 kts 222°
2026-05-04 17:54 32.43569 -95.30465 2303 ft 141 kts 220°
2026-05-04 17:54 32.42879 -95.31279 2157 ft 136 kts 222°
2026-05-04 17:54 32.42210 -95.32059 2028 ft 134 kts 218°
2026-05-04 17:54 32.41552 -95.32833 1874 ft 134 kts 220°
2026-05-04 17:55 32.40898 -95.33611 1707 ft 132 kts 221°
2026-05-04 17:55 32.40268 -95.34371 1635 ft 128 kts 219°
2026-05-04 17:55 32.39626 -95.35125 1483 ft 132 kts 220°
2026-05-04 17:55 32.38971 -95.35876 1396 ft 130 kts 221°
2026-05-04 17:56 32.38350 -95.36621 1205 ft 125 kts 220°
2026-05-04 17:56 32.37732 -95.37336 1008 ft 124 kts 221°
2026-05-04 17:56 32.37144 -95.38044 929 ft 118 kts 219°
2026-05-04 17:56 32.36570 -95.38720 750 ft 116 kts 221°
2026-05-04 17:57 32.36014 -95.39393 594 ft 110 kts 222°
2026-05-04 17:57 32.35557 -95.39927 543 ft 75 kts 225°
2026-05-04 17:57 32.35274 -95.40267 546 ft 47 kts 225°
2026-05-04 17:57 32.35067 -95.40512 556 ft 37 kts 224°
2026-05-04 17:58 32.34919 -95.40687 552 ft 28 kts 225°
2026-05-04 17:58 32.34788 -95.40843 549 ft 26 kts 224°
2026-05-04 17:58 32.34665 -95.40987 545 ft 25 kts 224°
2026-05-04 17:58 32.34550 -95.41121 543 ft 21 kts 225°
2026-05-04 17:59 32.34511 -95.41231 541 ft 14 kts 311°
2026-05-04 17:59 32.34585 -95.41263 542 ft 12 kts 40°
2026-05-04 17:59 32.34708 -95.41119 545 ft 13 kts 45°
2026-05-04 18:00 32.34773 -95.41042 546 ft 13 kts 45°
2026-05-04 18:00 32.34840 -95.40963 548 ft 14 kts 45°
2026-05-04 18:00 32.34909 -95.40882 549 ft 14 kts 45°
2026-05-04 18:00 32.34980 -95.40797 550 ft 15 kts 45°
2026-05-04 18:01 32.35040 -95.40741 551 ft 8 kts 357°
2026-05-04 18:01 32.35082 -95.40783 551 ft 8 kts 279°
2026-05-04 18:01 32.35050 -95.40838 550 ft 10 kts 226°
2026-05-04 18:02 32.35003 -95.40921 549 ft 2 kts 321°
2026-05-04 18:02 32.35011 -95.40923 549 ft 2 kts 355°
2026-05-04 18:02 32.35031 -95.40925 550 ft 2 kts 359°
2026-05-04 18:02 32.35034 -95.40925 550 ft 0 kts 359°